QPF
0.05 0.03 0.06 0.04 0.04 0.03 0.02 0.01 0.02 0.02 0.02 0.03 0.04 0.04 0.02 0.03 0.03 0.03 0.03 0.02 0.02 0.02 0.02 0.02 0.02 0.03 0.03 0.04 0.08 0.10 0.09 0.08 0.07 0.06 0.05 0.05 0.06 0.08 0.08 0.11 0.08 0.08 0.10
0.03 0.02 0.04 0.04 0.04 0.03 0.03 0.02 0.02 0.01 0.01 0.02 0.04 0.03 0.02 0.03 0.02 0.03 0.03 0.02 0.03 0.02 0.02 0.03 0.03 0.02 0.03 0.05 0.11 0.10 0.09 0.10 0.10 0.07 0.05 0.04 0.06 0.13 0.18 0.16 0.11 0.09 0.10
0.03 0.03 0.02 0.03 0.03 0.04 0.03 0.01 0.01 0.01 0.01 0.02 0.03 0.03 0.03 0.02 0.02 0.04 0.03 0.03 0.03 0.03 0.03 0.04 0.03 0.02 0.03 0.04 0.05 0.05 0.08 0.11 0.11 0.09 0.06 0.03 0.05 0.11 0.27 0.24 0.17 0.13 0.12
0.01 0.01 0.01 0.03 0.03 0.02 0.02 0.01 0.01 0.01 0.01 0.02 0.02 0.02 0.03 0.02 0.04 0.04 0.05 0.04 0.04 0.05 0.05 0.05 0.03 0.01 0.01 0.01 0.02 0.04 0.08 0.10 0.10 0.07 0.04 0.04 0.05 0.09 0.16 0.26 0.26 0.19 0.13
0.00 0.00 0.01 0.03 0.02 0.01 0.01 0.01 0.01 0.01 0.01 0.02 0.02 0.02 0.02 0.02 0.03 0.04 0.05 0.04 0.04 0.04 0.04 0.03 0.03 0.03 0.02 0.01 0.02 0.04 0.08 0.08 0.07 0.03 0.03 0.03 0.05 0.10 0.13 0.18 0.25 0.23 0.14
0.01 0.01 0.01 0.02 0.02 0.01 0.01 0.01 0.01 0.01 0.02 0.02 0.02 0.02 0.02 0.02 0.03 0.03 0.04 0.04 0.04 0.06 0.04 0.03 0.03 0.02 0.02 0.02 0.03 0.04 0.06 0.05 0.03 0.02 0.02 0.03 0.03 0.07 0.13 0.16 0.16 0.14 0.11
0.01 0.01 0.01 0.02 0.02 0.01 0.02 0.01 0.01 0.02 0.02 0.02 0.02 0.02 0.03 0.03 0.03 0.04 0.04 0.04 0.05 0.07 0.06 0.04 0.03 0.03 0.03 0.03 0.03 0.04 0.03 0.01 0.02 0.03 0.02 0.02 0.03 0.08 0.10 0.07 0.06 0.07 0.05
0.01 0.02 0.02 0.02 0.02 0.03 0.04 0.02 0.02 0.03 0.02 0.02 0.02 0.02 0.03 0.04 0.03 0.03 0.03 0.04 0.05 0.06 0.05 0.03 0.04 0.04 0.04 0.04 0.04 0.04 0.03 0.01 0.01 0.01 0.01 0.02 0.05 0.10 0.08 0.05 0.05 0.05 0.05
0.01 0.02 0.02 0.02 0.01 0.03 0.04 0.03 0.02 0.02 0.02 0.02 0.02 0.02 0.02 0.04 0.05 0.03 0.02 0.03 0.05 0.05 0.04 0.03 0.03 0.03 0.03 0.03 0.03 0.04 0.04 0.02 0.01 0.00 0.00 0.02 0.05 0.06 0.05 0.04 0.05 0.05 0.05
0.01 0.01 0.01 0.01 0.01 0.01 0.02 0.03 0.02 0.03 0.02 0.02 0.03 0.02 0.03 0.05 0.05 0.04 0.04 0.05 0.07 0.06 0.04 0.03 0.02 0.02 0.02 0.03 0.03 0.03 0.03 0.01 0.00 0.00 0.01 0.04 0.05 0.05 0.04 0.05 0.06 0.06 0.05
0.02 0.01 0.01 0.01 0.01 0.01 0.02 0.03 0.03 0.03 0.02 0.02 0.02 0.02 0.03 0.03 0.03 0.03 0.05 0.06 0.06 0.04 0.03 0.02 0.02 0.02 0.01 0.02 0.02 0.01 0.01 0.00 0.00 0.01 0.03 0.05 0.06 0.05 0.05 0.06 0.07 0.06 0.05
0.02 0.02 0.01 0.01 0.02 0.02 0.01 0.02 0.01 0.02 0.02 0.01 0.01 0.01 0.02 0.02 0.02 0.02 0.04 0.03 0.03 0.02 0.02 0.01 0.01 0.01 0.00 0.00 0.00 0.00 0.00 0.00 0.00 0.01 0.03 0.03 0.03 0.04 0.05 0.06 0.07 0.06 0.05
0.01 0.01 0.02 0.02 0.02 0.01 0.01 0.00 0.00 0.00 0.01 0.01 0.01 0.01 0.02 0.02 0.02 0.02 0.02 0.02 0.02 0.01 0.00 0.00 0.00 0.01 0.00 0.01 0.00 0.00 0.00 0.00 0.00 0.02 0.04 0.04 0.04 0.04 0.05 0.05 0.05 0.04 0.03
0.03 0.03 0.02 0.02 0.02 0.01 0.01 0.00 0.00 0.00 0.00 0.00 0.01 0.01 0.01 0.01 0.02 0.03 0.02 0.02 0.02 0.01 0.00 0.00 0.00 0.01 0.01 0.01 0.01 0.01 0.00 0.00 0.00 0.01 0.06 0.10 0.09 0.07 0.07 0.06 0.05 0.04 0.04
0.05 0.05 0.04 0.02 0.03 0.02 0.01 0.00 0.00 0.00 0.00 0.00 0.00 0.01 0.01 0.01 0.01 0.02 0.02 0.02 0.02 0.02 0.01 0.01 0.01 0.00 0.01 0.01 0.01 0.00 0.00 0.00 0.01 0.00 0.03 0.09 0.11 0.10 0.07 0.04 0.04 0.04 0.05
0.04 0.04 0.04 0.04 0.04 0.02 0.01 0.01 0.01 0.00 0.00 0.00 0.00 0.00 0.01 0.01 0.01 0.01 0.01 0.01 0.01 0.02 0.02 0.02 0.01 0.01 0.00 0.00 0.00 0.00 0.00 0.00 0.01 0.01 0.02 0.05 0.07 0.08 0.08 0.05 0.04 0.05 0.05
0.02 0.02 0.02 0.04 0.05 0.03 0.01 0.00 0.01 0.00 0.00 0.00 0.00 0.00 0.00 0.00 0.01 0.02 0.01 0.01 0.01 0.01 0.01 0.01 0.01 0.00 0.00 0.00 0.00 0.00 0.00 0.00 0.00 0.00 0.01 0.02 0.03 0.04 0.06 0.06 0.06 0.06 0.07
0.02 0.02 0.02 0.03 0.04 0.03 0.01 0.01 0.01 0.01 0.01 0.00 0.00 0.00 0.00 0.00 0.00 0.01 0.01 0.01 0.01 0.02 0.01 0.01 0.01 0.00 0.00 0.00 0.00 0.00 0.00 0.00 0.00 0.00 0.00 0.00 0.01 0.02 0.03 0.03 0.04 0.04 0.04
0.02 0.02 0.02 0.03 0.03 0.02 0.02 0.01 0.01 0.01 0.01 0.01 0.01 0.00 0.00 0.00 0.00 0.00 0.01 0.01 0.01 0.01 0.01 0.01 0.01 0.00 0.00 0.00 0.00 0.00 0.00 0.00 0.00 0.00 0.00 0.00 0.01 0.01 0.01 0.02 0.02 0.03 0.06
0.02 0.02 0.02 0.02 0.04 0.04 0.03 0.02 0.02 0.02 0.01 0.00 0.00 0.01 0.00 0.00 0.00 0.00 0.00 0.00 0.01 0.00 0.00 0.01 0.01 0.01 0.00 0.00 0.00 0.00 0.00 0.00 0.00 0.00 0.00 0.00 0.00 0.00 0.00 0.00 0.01 0.07 0.17
0.02 0.02 0.03 0.02 0.03 0.04 0.05 0.03 0.04 0.03 0.01 0.01 0.00 0.01 0.00 0.00 0.00 0.00 0.00 0.00 0.00 0.00 0.00 0.01 0.01 0.01 0.01 0.01 0.01 0.00 0.00 0.00 0.00 0.00 0.00 0.00 0.00 0.00 0.01 0.00 0.01 0.11 0.30
0.02 0.02 0.03 0.03 0.02 0.02 0.02 0.02 0.02 0.03 0.02 0.02 0.01 0.01 0.01 0.00 0.00 0.00 0.00 0.00 0.00 0.00 0.00 0.01 0.01 0.02 0.02 0.02 0.01 0.01 0.00 0.00 0.00 0.00 0.00 0.00 0.00 0.00 0.00 0.00 0.01 0.06 0.21
0.02 0.02 0.04 0.04 0.04 0.04 0.03 0.03 0.03 0.02 0.02 0.01 0.01 0.01 0.01 0.01 0.01 0.01 0.01 0.01 0.01 0.01 0.01 0.01 0.01 0.01 0.01 0.02 0.03 0.03 0.01 0.01 0.00 0.00 0.00 0.00 0.00 0.00 0.00 0.01 0.01 0.02 0.07
0.01 0.02 0.03 0.04 0.04 0.05 0.06 0.06 0.04 0.03 0.02 0.01 0.01 0.02 0.02 0.01 0.01 0.01 0.01 0.01 0.01 0.01 0.01 0.01 0.01 0.01 0.01 0.02 0.02 0.03 0.03 0.03 0.02 0.01 0.00 0.01 0.00 0.00 0.01 0.01 0.03 0.03 0.04
0.01 0.01 0.02 0.03 0.03 0.04 0.04 0.04 0.04 0.04 0.04 0.03 0.02 0.02 0.02 0.02 0.02 0.01 0.01 0.01 0.01 0.01 0.01 0.01 0.01 0.01 0.01 0.02 0.02 0.02 0.03 0.04 0.04 0.03 0.02 0.01 0.00 0.01 0.01 0.01 0.02 0.03 0.03
0.01 0.01 0.02 0.02 0.03 0.03 0.03 0.03 0.04 0.05 0.05 0.04 0.03 0.03 0.03 0.03 0.02 0.02 0.01 0.01 0.01 0.01 0.01 0.01 0.01 0.02 0.02 0.03 0.03 0.04 0.04 0.04 0.04 0.04 0.03 0.01 0.01 0.01 0.00 0.01 0.01 0.02 0.03
MSLP
1016.62 1015.92 1015.24 1014.67 1014.25 1013.98 1013.84 1013.81 1013.81 1013.80 1013.74 1013.62 1013.46 1013.28 1013.11 1013.00 1012.95 1012.96 1013.01 1013.07 1013.09 1013.04 1012.90 1012.69 1012.43 1012.16 1011.93 1011.78 1011.73 1011.77 1011.85 1011.92 1011.88 1011.66 1011.20 1010.51 1009.63 1008.64 1007.68 1006.87 1006.34 1006.16 1006.35
1016.95 1016.30 1015.67 1015.13 1014.73 1014.48 1014.36 1014.32 1014.31 1014.30 1014.24 1014.14 1014.00 1013.84 1013.71 1013.62 1013.58 1013.59 1013.62 1013.63 1013.60 1013.50 1013.31 1013.05 1012.74 1012.43 1012.16 1011.99 1011.92 1011.93 1011.97 1011.98 1011.85 1011.51 1010.90 1010.02 1008.93 1007.73 1006.58 1005.62 1005.00 1004.81 1005.06
1017.15 1016.57 1016.00 1015.51 1015.16 1014.95 1014.85 1014.82 1014.83 1014.83 1014.79 1014.70 1014.59 1014.45 1014.34 1014.25 1014.20 1014.18 1014.17 1014.14 1014.05 1013.89 1013.65 1013.35 1013.00 1012.67 1012.38 1012.18 1012.08 1012.06 1012.06 1012.02 1011.82 1011.38 1010.66 1009.65 1008.43 1007.09 1005.82 1004.77 1004.10 1003.91 1004.20
1017.25 1016.74 1016.24 1015.83 1015.54 1015.38 1015.32 1015.32 1015.35 1015.36 1015.33 1015.27 1015.17 1015.05 1014.93 1014.84 1014.76 1014.70 1014.63 1014.54 1014.40 1014.19 1013.92 1013.59 1013.22 1012.87 1012.57 1012.36 1012.23 1012.19 1012.16 1012.07 1011.84 1011.36 1010.59 1009.54 1008.26 1006.89 1005.57 1004.50 1003.82 1003.64 1003.96
1017.28 1016.85 1016.44 1016.12 1015.90 1015.80 1015.77 1015.80 1015.83 1015.85 1015.83 1015.77 1015.68 1015.57 1015.45 1015.33 1015.22 1015.11 1014.99 1014.85 1014.66 1014.42 1014.12 1013.78 1013.42 1013.07 1012.77 1012.55 1012.41 1012.35 1012.30 1012.20 1011.97 1011.50 1010.76 1009.74 1008.51 1007.19 1005.92 1004.89 1004.23 1004.06 1004.37
1017.30 1016.96 1016.65 1016.41 1016.27 1016.21 1016.22 1016.25 1016.28 1016.29 1016.26 1016.19 1016.10 1015.99 1015.86 1015.73 1015.59 1015.44 1015.28 1015.09 1014.87 1014.61 1014.31 1013.98 1013.64 1013.30 1013.01 1012.79 1012.65 1012.57 1012.52 1012.43 1012.22 1011.82 1011.16 1010.26 1009.16 1007.96 1006.81 1005.86 1005.26 1005.09 1005.36
1017.36 1017.10 1016.89 1016.74 1016.67 1016.65 1016.66 1016.68 1016.68 1016.65 1016.60 1016.52 1016.42 1016.31 1016.19 1016.06 1015.90 1015.73 1015.54 1015.33 1015.09 1014.83 1014.54 1014.23 1013.92 1013.61 1013.34 1013.12 1012.97 1012.89 1012.83 1012.76 1012.60 1012.28 1011.75 1011.00 1010.08 1009.05 1008.06 1007.23 1006.69 1006.52 1006.72
1017.47 1017.30 1017.18 1017.12 1017.10 1017.10 1017.11 1017.09 1017.05 1016.97 1016.89 1016.79 1016.69 1016.59 1016.49 1016.37 1016.22 1016.05 1015.85 1015.62 1015.38 1015.12 1014.85 1014.58 1014.29 1014.02 1013.76 1013.56 1013.40 1013.31 1013.25 1013.19 1013.07 1012.84 1012.44 1011.86 1011.12 1010.29 1009.47 1008.77 1008.28 1008.10 1008.21
1017.65 1017.56 1017.52 1017.53 1017.56 1017.58 1017.56 1017.50 1017.40 1017.28 1017.16 1017.05 1016.96 1016.89 1016.81 1016.72 1016.60 1016.43 1016.23 1016.01 1015.77 1015.52 1015.27 1015.02 1014.77 1014.53 1014.30 1014.10 1013.94 1013.83 1013.75 1013.69 1013.60 1013.43 1013.14 1012.71 1012.14 1011.49 1010.82 1010.22 1009.79 1009.57 1009.58
1017.85 1017.83 1017.88 1017.97 1018.04 1018.06 1018.02 1017.92 1017.77 1017.61 1017.46 1017.35 1017.28 1017.24 1017.21 1017.16 1017.06 1016.91 1016.72 1016.49 1016.25 1016.01 1015.78 1015.56 1015.34 1015.13 1014.92 1014.73 1014.56 1014.42 1014.32 1014.24 1014.16 1014.02 1013.81 1013.48 1013.04 1012.52 1011.97 1011.46 1011.06 1010.80 1010.71
1018.04 1018.11 1018.24 1018.39 1018.50 1018.54 1018.48 1018.35 1018.16 1017.97 1017.81 1017.71 1017.68 1017.68 1017.70 1017.69 1017.62 1017.49 1017.29 1017.06 1016.81 1016.57 1016.34 1016.14 1015.95 1015.77 1015.59 1015.41 1015.23 1015.08 1014.95 1014.83 1014.73 1014.60 1014.41 1014.15 1013.79 1013.36 1012.90 1012.44 1012.04 1011.75 1011.58
1018.20 1018.35 1018.56 1018.77 1018.93 1018.98 1018.92 1018.77 1018.57 1018.37 1018.22 1018.15 1018.15 1018.20 1018.26 1018.28 1018.24 1018.11 1017.91 1017.66 1017.40 1017.14 1016.92 1016.73 1016.57 1016.42 1016.27 1016.11 1015.94 1015.77 1015.61 1015.46 1015.32 1015.17 1014.99 1014.74 1014.43 1014.05 1013.64 1013.21 1012.82 1012.50 1012.25
1018.31 1018.54 1018.83 1019.09 1019.29 1019.36 1019.31 1019.16 1018.96 1018.78 1018.65 1018.61 1018.65 1018.74 1018.84 1018.89 1018.86 1018.73 1018.52 1018.25 1017.97 1017.70 1017.48 1017.30 1017.16 1017.04 1016.92 1016.79 1016.64 1016.47 1016.30 1016.12 1015.96 1015.78 1015.58 1015.33 1015.03 1014.68 1014.29 1013.89 1013.50 1013.16 1012.87
1018.39 1018.68 1019.02 1019.33 1019.56 1019.65 1019.62 1019.49 1019.32 1019.16 1019.06 1019.06 1019.14 1019.26 1019.38 1019.45 1019.43 1019.30 1019.08 1018.80 1018.50 1018.22 1018.00 1017.83 1017.71 1017.62 1017.54 1017.44 1017.32 1017.16 1017.00 1016.82 1016.63 1016.43 1016.22 1015.97 1015.68 1015.34 1014.97 1014.59 1014.21 1013.86 1013.56
1018.43 1018.77 1019.14 1019.48 1019.72 1019.84 1019.84 1019.74 1019.60 1019.48 1019.42 1019.45 1019.56 1019.70 1019.84 1019.92 1019.91 1019.78 1019.56 1019.28 1018.98 1018.70 1018.48 1018.32 1018.22 1018.16 1018.11 1018.05 1017.96 1017.84 1017.69 1017.53 1017.34 1017.15 1016.93 1016.68 1016.40 1016.08 1015.74 1015.38 1015.03 1014.69 1014.39
1018.44 1018.80 1019.18 1019.52 1019.78 1019.92 1019.95 1019.89 1019.80 1019.72 1019.70 1019.76 1019.88 1020.04 1020.18 1020.27 1020.27 1020.16 1019.96 1019.70 1019.42 1019.16 1018.95 1018.80 1018.72 1018.68 1018.65 1018.62 1018.57 1018.49 1018.38 1018.24 1018.09 1017.91 1017.70 1017.47 1017.21 1016.92 1016.61 1016.28 1015.96 1015.66 1015.37
1018.42 1018.77 1019.14 1019.48 1019.74 1019.90 1019.96 1019.95 1019.91 1019.88 1019.90 1019.98 1020.11 1020.27 1020.42 1020.52 1020.53 1020.46 1020.30 1020.08 1019.84 1019.62 1019.44 1019.31 1019.24 1019.20 1019.19 1019.18 1019.16 1019.12 1019.05 1018.95 1018.83 1018.69 1018.51 1018.31 1018.08 1017.82 1017.54 1017.24 1016.96 1016.68 1016.43
1018.35 1018.68 1019.02 1019.34 1019.60 1019.79 1019.90 1019.95 1019.97 1020.00 1020.05 1020.15 1020.28 1020.43 1020.58 1020.68 1020.73 1020.70 1020.60 1020.46 1020.29 1020.12 1019.98 1019.87 1019.80 1019.77 1019.75 1019.75 1019.75 1019.73 1019.70 1019.65 1019.57 1019.47 1019.33 1019.16 1018.95 1018.71 1018.45 1018.19 1017.93 1017.68 1017.45
1018.21 1018.51 1018.82 1019.12 1019.39 1019.62 1019.79 1019.91 1020.01 1020.09 1020.18 1020.29 1020.42 1020.56 1020.70 1020.81 1020.89 1020.92 1020.90 1020.84 1020.75 1020.65 1020.56 1020.48 1020.41 1020.37 1020.35 1020.34 1020.34 1020.34 1020.34 1020.33 1020.29 1020.23 1020.12 1019.97 1019.78 1019.55 1019.30 1019.05 1018.80 1018.56 1018.34
1017.97 1018.24 1018.52 1018.82 1019.12 1019.39 1019.64 1019.86 1020.04 1020.18 1020.31 1020.43 1020.56 1020.68 1020.80 1020.92 1021.03 1021.12 1021.18 1021.22 1021.23 1021.21 1021.17 1021.12 1021.06 1021.01 1020.97 1020.95 1020.95 1020.96 1020.99 1021.01 1021.01 1020.98 1020.89 1020.75 1020.55 1020.31 1020.05 1019.78 1019.52 1019.28 1019.06
1017.61 1017.86 1018.14 1018.45 1018.78 1019.13 1019.47 1019.78 1020.05 1020.27 1020.44 1020.58 1020.69 1020.79 1020.90 1021.02 1021.15 1021.30 1021.44 1021.57 1021.67 1021.73 1021.76 1021.74 1021.70 1021.64 1021.59 1021.56 1021.56 1021.59 1021.64 1021.69 1021.72 1021.71 1021.63 1021.48 1021.27 1021.00 1020.70 1020.39 1020.09 1019.82 1019.58
1017.13 1017.37 1017.66 1017.99 1018.38 1018.80 1019.24 1019.65 1020.02 1020.31 1020.53 1020.68 1020.79 1020.87 1020.96 1021.08 1021.23 1021.43 1021.64 1021.86 1022.04 1022.19 1022.27 1022.30 1022.28 1022.23 1022.18 1022.15 1022.16 1022.21 1022.29 1022.37 1022.42 1022.43 1022.35 1022.19 1021.94 1021.62 1021.27 1020.90 1020.55 1020.24 1019.96
1016.53 1016.79 1017.09 1017.46 1017.90 1018.39 1018.92 1019.43 1019.88 1020.25 1020.52 1020.69 1020.79 1020.86 1020.94 1021.06 1021.23 1021.46 1021.74 1022.03 1022.29 1022.51 1022.65 1022.73 1022.74 1022.72 1022.69 1022.68 1022.71 1022.78 1022.89 1023.00 1023.08 1023.10 1023.03 1022.85 1022.57 1022.21 1021.79 1021.36 1020.95 1020.58 1020.26
1015.85 1016.13 1016.45 1016.84 1017.32 1017.87 1018.47 1019.05 1019.59 1020.02 1020.34 1020.54 1020.66 1020.73 1020.81 1020.93 1021.12 1021.39 1021.71 1022.06 1022.39 1022.67 1022.88 1023.00 1023.05 1023.06 1023.06 1023.08 1023.14 1023.25 1023.39 1023.54 1023.65 1023.69 1023.62 1023.44 1023.14 1022.74 1022.28 1021.79 1021.33 1020.90 1020.53
1015.12 1015.42 1015.75 1016.15 1016.65 1017.23 1017.86 1018.50 1019.09 1019.58 1019.95 1020.19 1020.34 1020.43 1020.53 1020.67 1020.89 1021.19 1021.56 1021.96 1022.34 1022.68 1022.93 1023.11 1023.20 1023.25 1023.28 1023.34 1023.43 1023.58 1023.75 1023.93 1024.07 1024.14 1024.08 1023.91 1023.60 1023.19 1022.71 1022.19 1021.68 1021.21 1020.80
1014.38 1014.69 1015.02 1015.40 1015.89 1016.47 1017.11 1017.78 1018.40 1018.94 1019.35 1019.64 1019.84 1019.98 1020.12 1020.30 1020.56 1020.90 1021.31 1021.75 1022.18 1022.56 1022.86 1023.07 1023.21 1023.29 1023.35 1023.44 1023.56 1023.73 1023.93 1024.13 1024.30 1024.38 1024.35 1024.20 1023.91 1023.51 1023.04 1022.52 1022.00 1021.51 1021.06
Thickness
5758 5762 5763 5764 5764 5764 5765 5765 5765 5765 5766 5766 5767 5767 5767 5766 5766 5766 5766 5767 5767 5767 5767 5767 5766 5766 5766 5766 5766 5766 5766 5766 5766 5765 5765 5765 5765 5766 5766 5767 5767 5766 5766
5760 5761 5762 5762 5762 5763 5763 5763 5763 5764 5764 5765 5765 5765 5765 5764 5764 5764 5764 5764 5764 5764 5764 5764 5764 5764 5763 5763 5763 5763 5763 5763 5763 5762 5762 5762 5762 5763 5764 5766 5765 5764 5763
5760 5760 5760 5761 5761 5761 5761 5761 5761 5761 5761 5762 5762 5762 5762 5762 5761 5761 5761 5761 5761 5761 5761 5761 5760 5760 5760 5760 5760 5760 5760 5759 5759 5759 5759 5759 5760 5761 5762 5764 5764 5763 5761
5759 5759 5759 5759 5758 5758 5758 5759 5759 5759 5759 5759 5760 5759 5759 5758 5758 5758 5758 5758 5758 5757 5757 5757 5757 5757 5757 5757 5757 5757 5756 5756 5755 5755 5755 5755 5756 5757 5759 5759 5760 5759 5757
5757 5757 5756 5757 5757 5756 5756 5756 5756 5756 5756 5756 5756 5756 5755 5755 5755 5755 5755 5754 5754 5754 5754 5754 5753 5753 5753 5753 5753 5753 5753 5752 5752 5751 5751 5752 5753 5754 5754 5755 5754 5753 5753
5755 5755 5754 5755 5754 5754 5754 5753 5753 5753 5752 5752 5752 5752 5752 5751 5751 5751 5751 5751 5751 5751 5750 5750 5750 5750 5750 5749 5749 5749 5748 5748 5747 5747 5748 5748 5749 5750 5750 5750 5750 5750 5750
5753 5753 5752 5752 5752 5751 5751 5751 5750 5750 5749 5749 5749 5748 5748 5748 5748 5747 5747 5747 5747 5747 5746 5746 5746 5746 5746 5746 5745 5745 5744 5744 5744 5744 5744 5745 5746 5747 5747 5747 5747 5747 5747
5752 5751 5750 5750 5749 5749 5748 5748 5747 5747 5746 5746 5745 5745 5744 5744 5744 5744 5743 5743 5743 5743 5743 5742 5742 5743 5743 5742 5742 5741 5740 5740 5740 5740 5741 5742 5743 5743 5743 5744 5743 5743 5744
5750 5748 5747 5746 5746 5745 5745 5744 5744 5743 5743 5742 5742 5741 5741 5740 5740 5739 5739 5739 5739 5739 5739 5739 5739 5739 5739 5738 5738 5737 5737 5736 5736 5737 5737 5738 5739 5740 5740 5740 5739 5739 5739
5746 5745 5744 5743 5743 5742 5742 5741 5740 5739 5739 5738 5738 5737 5737 5736 5736 5735 5735 5735 5735 5735 5734 5734 5734 5735 5735 5734 5734 5733 5733 5732 5732 5733 5734 5735 5735 5735 5735 5735 5735 5735 5735
5741 5741 5740 5740 5739 5739 5738 5737 5737 5735 5735 5734 5733 5733 5732 5732 5732 5731 5731 5731 5731 5731 5730 5730 5730 5730 5730 5729 5729 5729 5729 5728 5728 5729 5730 5730 5731 5731 5731 5731 5731 5731 5731
5736 5736 5737 5736 5736 5735 5735 5734 5733 5731 5730 5730 5729 5729 5728 5728 5727 5727 5727 5726 5726 5726 5726 5725 5725 5725 5725 5724 5724 5724 5724 5724 5724 5724 5725 5726 5726 5726 5727 5727 5726 5726 5726
5735 5735 5734 5734 5733 5732 5731 5730 5728 5727 5726 5725 5725 5725 5724 5723 5723 5722 5722 5721 5722 5722 5721 5721 5721 5720 5720 5719 5719 5719 5719 5719 5719 5719 5720 5721 5722 5722 5722 5722 5722 5722 5722
5733 5733 5733 5732 5730 5729 5728 5727 5725 5724 5723 5722 5721 5720 5720 5719 5718 5717 5717 5717 5717 5717 5716 5717 5716 5716 5715 5715 5715 5714 5714 5714 5714 5715 5715 5716 5717 5718 5718 5718 5717 5717 5717
5731 5731 5731 5730 5728 5727 5725 5724 5722 5720 5719 5718 5717 5716 5716 5715 5713 5713 5713 5712 5712 5712 5712 5712 5712 5711 5711 5710 5710 5710 5709 5709 5709 5710 5710 5711 5712 5712 5713 5713 5713 5713 5712
5730 5729 5729 5728 5726 5725 5723 5721 5719 5718 5717 5716 5714 5713 5712 5711 5710 5710 5709 5708 5708 5707 5707 5707 5707 5707 5706 5706 5706 5705 5705 5705 5704 5704 5705 5705 5706 5707 5708 5708 5707 5708 5708
5729 5729 5727 5726 5724 5722 5720 5719 5717 5715 5714 5713 5711 5710 5709 5708 5707 5706 5705 5704 5704 5703 5703 5703 5702 5702 5702 5701 5700 5700 5700 5700 5699 5699 5699 5699 5700 5701 5702 5702 5702 5702 5702
5728 5726 5725 5724 5721 5719 5718 5716 5714 5712 5711 5710 5708 5707 5706 5705 5704 5702 5701 5700 5700 5700 5699 5699 5698 5696 5696 5695 5694 5695 5695 5695 5695 5694 5694 5694 5694 5695 5696 5696 5696 5696 5697
5727 5725 5722 5721 5718 5717 5715 5713 5712 5710 5708 5707 5705 5704 5703 5702 5701 5699 5697 5696 5696 5696 5695 5695 5693 5692 5690 5689 5690 5690 5690 5689 5689 5689 5688 5688 5689 5689 5690 5690 5691 5691 5691
5724 5722 5719 5717 5716 5714 5712 5710 5708 5706 5704 5703 5702 5701 5700 5699 5697 5696 5695 5693 5693 5691 5690 5690 5688 5688 5686 5685 5686 5685 5684 5684 5684 5683 5683 5683 5683 5683 5683 5684 5684 5685 5686
5719 5718 5715 5713 5711 5710 5707 5704 5702 5700 5699 5699 5699 5698 5697 5696 5694 5693 5692 5690 5689 5687 5686 5685 5684 5683 5681 5681 5679 5676 5678 5679 5678 5678 5678 5678 5678 5677 5678 5678 5679 5679 5681
5713 5713 5711 5710 5708 5707 5705 5703 5701 5698 5696 5696 5695 5695 5694 5693 5692 5690 5689 5687 5685 5684 5682 5681 5680 5678 5677 5677 5673 5668 5665 5667 5671 5673 5672 5672 5672 5672 5672 5673 5673 5674 5674
5709 5708 5708 5707 5705 5704 5702 5700 5698 5695 5692 5691 5690 5690 5690 5689 5688 5687 5686 5684 5682 5681 5678 5677 5676 5674 5671 5671 5671 5666 5660 5657 5660 5664 5665 5666 5665 5666 5667 5668 5668 5668 5669
5706 5706 5704 5703 5702 5701 5699 5696 5693 5689 5686 5686 5686 5686 5686 5686 5685 5684 5682 5681 5679 5677 5675 5674 5673 5671 5669 5666 5666 5665 5663 5660 5655 5654 5657 5659 5660 5660 5661 5662 5663 5663 5663
5703 5702 5701 5699 5698 5697 5696 5693 5690 5687 5685 5684 5684 5683 5682 5682 5682 5681 5679 5677 5676 5674 5672 5671 5669 5668 5666 5663 5661 5660 5659 5656 5654 5650 5648 5651 5653 5654 5655 5656 5657 5657 5657
5698 5697 5696 5695 5694 5693 5692 5690 5688 5685 5683 5681 5680 5678 5677 5677 5677 5676 5676 5674 5672 5671 5669 5667 5666 5664 5662 5661 5659 5657 5655 5652 5649 5647 5644 5644 5644 5647 5649 5650 5650 5651 5651